Theta_e
322 313 310 312 301 300 294 293 296 292 300 305 303 297 295 297 294 297 308 309 311 317 320 339 338 340 342 341 343 343 343 340 339 340 343 343 342 341 340 338 337 336 335 335 334 335 336 338 336
319 311 308 306 297 293 293 293 289 291 296 307 300 301 296 293 301 302 304 308 311 315 317 331 335 338 340 343 342 344 342 341 339 338 341 343 342 341 342 339 338 337 336 334 336 335 333 335 335
311 305 303 294 289 291 288 288 288 292 296 301 297 298 297 296 301 302 306 309 310 312 316 321 331 331 337 341 343 343 343 341 341 340 338 340 342 341 341 340 339 338 337 335 334 333 332 332 333
305 303 295 287 283 285 287 288 289 291 294 296 297 293 298 302 301 304 306 308 308 309 311 316 322 326 331 335 338 341 342 342 341 341 341 340 339 343 341 341 341 340 338 336 335 333 332 331 332
301 298 288 285 284 287 288 290 290 290 292 293 296 294 296 301 303 304 305 307 306 308 309 311 316 319 323 328 330 334 339 342 342 341 341 341 340 344 345 341 340 341 338 336 335 334 333 333 332
298 296 288 284 284 287 288 289 291 290 291 293 293 293 297 301 301 303 304 305 306 306 307 309 311 313 315 318 324 326 329 337 340 341 340 340 341 343 342 341 340 340 338 336 335 334 334 333 330
294 289 285 283 282 285 288 290 290 290 291 292 294 292 295 298 301 302 302 304 305 306 305 307 307 308 310 312 317 323 325 329 336 339 340 339 339 339 339 339 340 341 340 336 335 333 333 331 329
292 289 285 283 282 284 288 289 291 291 291 295 296 291 292 297 301 302 303 303 303 305 304 305 306 306 306 308 312 315 318 324 326 333 334 333 332 334 334 333 336 339 339 338 336 335 332 331 329
295 287 283 284 283 284 289 289 292 293 293 293 295 295 297 299 301 300 300 301 301 302 303 304 304 304 305 307 309 310 312 318 325 329 329 328 335 336 335 331 333 337 337 337 336 334 333 331 329
288 285 285 286 285 286 288 289 290 291 290 292 294 296 297 298 298 297 297 297 298 299 301 303 302 302 303 304 306 307 309 314 318 323 329 334 334 335 335 329 328 332 332 334 335 334 332 327 327
286 283 286 287 288 289 289 289 291 289 289 291 291 293 295 296 297 296 296 297 297 299 300 301 302 302 302 302 305 306 308 310 314 318 324 331 333 334 335 336 332 331 325 332 332 332 330 328 325
285 286 287 290 290 289 288 290 288 289 289 293 294 294 294 294 295 295 295 296 297 298 299 300 300 300 301 302 303 305 306 307 308 311 313 323 330 330 331 332 333 329 327 328 329 328 328 326 324
285 286 288 289 289 288 290 288 288 288 290 293 293 293 292 293 294 295 296 297 297 296 297 298 299 299 300 300 301 302 303 305 306 308 311 315 323 329 330 329 330 328 327 327 325 325 325 325 323
286 287 287 289 289 289 287 287 289 288 291 291 291 290 291 292 293 294 294 295 295 296 296 298 298 300 300 299 300 300 301 303 306 307 309 312 316 324 329 328 327 326 325 326 325 323 323 322 322
287 285 286 287 288 288 289 286 285 288 290 289 288 289 290 291 292 292 293 294 295 296 297 297 299 300 299 299 300 301 301 302 304 305 307 309 312 320 328 328 327 326 325 325 323 322 321 320 319
284 282 279 285 288 288 287 280 286 288 289 287 287 287 289 290 291 292 294 294 295 296 296 298 299 298 299 299 300 300 301 301 303 305 306 307 309 311 317 327 326 326 324 324 322 321 319 318 317
281 277 279 282 287 288 286 282 286 288 287 286 286 286 287 289 291 292 294 295 296 296 296 297 298 298 299 300 301 300 301 301 302 304 306 306 308 310 313 325 326 326 323 321 322 321 320 317 316
278 278 279 279 284 286 284 283 285 287 286 285 285 285 286 288 290 292 293 295 296 296 296 297 298 298 299 300 301 302 301 301 303 304 305 306 308 309 311 320 326 326 323 322 321 320 318 318 317
280 279 278 281 285 284 282 282 283 285 286 285 285 285 286 287 290 291 293 295 295 296 295 296 296 298 299 299 299 300 301 301 303 306 306 307 309 310 312 318 326 326 324 322 321 319 316 315 316
281 280 279 282 285 284 281 282 283 285 285 285 285 284 285 286 288 289 292 293 294 294 294 296 296 298 299 300 302 306 305 302 304 307 307 309 308 311 314 322 324 324 322 322 320 319 316 316 315
281 280 279 279 282 283 281 279 281 284 286 286 285 285 285 285 286 287 290 292 293 292 293 295 297 298 299 300 301 303 307 305 305 306 307 307 311 316 320 322 324 323 322 321 321 319 317 314 314
281 283 283 282 278 274 280 274 278 281 283 284 283 283 284 284 286 287 290 291 291 292 294 295 296 297 298 299 299 299 298 297 300 301 302 303 303 305 308 312 314 314 314 317 318 321 319 318 314
281 284 283 282 279 276 278 273 276 281 280 282 283 283 283 284 285 286 289 290 291 292 292 295 296 296 297 297 297 297 297 298 299 300 300 300 300 300 302 304 305 307 307 307 306 306 305 309 316
286 283 282 280 278 272 276 274 275 276 280 282 282 283 283 283 284 287 289 290 290 291 292 293 294 294 295 295 295 295 295 295 295 296 297 298 298 298 299 300 301 301 302 303 303 303 302 301 302
283 279 273 271 271 272 277 275 279 281 282 283 281 283 283 283 283 284 285 287 288 289 290 291 292 292 293 294 293 294 294 295 294 294 294 294 294 294 295 297 297 297 299 299 299 299 299 299 298
282 279 275 268 269 272 278 275 281 282 284 283 283 283 283 282 283 283 284 285 285 286 287 288 289 290 291 292 292 292 293 293 293 293 293 293 294 294 294 294 294 294 295 296 296 295 296 296 296
282 280 281 274 265 271 274 278 281 282 281 281 281 282 282 282 282 283 284 284 285 285 286 287 287 289 290 290 291 291 291 291 291 291 292 291 292 293 292 292 292 292 292 292 293 292 292 293 294
284 284 277 275 267 266 272 275 278 279 280 281 280 281 281 282 282 283 283 284 285 285 286 287 287 287 288 289 289 290 290 290 290 290 289 290 290 291 291 291 291 291 291 291 291 290 290 290 290
282 280 281 279 275 271 269 275 281 282 283 281 281 282 282 282 281 282 283 283 284 285 285 285 285 286 286 287 288 288 288 288 288 288 288 288 289 289 289 289 289 289 289 289 289 288 288 287 288
283 281 281 274 273 274 275 275 283 282 284 284 282 282 282 282 282 282 282 283 283 283 283 283 283 283 284 285 286 286 287 287 286 286 287 287 287 288 287 287 287 287 287 287 287 286 286 285 285
Wind_Speed
7 4 1 4 6 6 4 3 2 9 4 3 8 12 15 10 4 3 7 15 19 14 17 14 18 17 10 6 7 6 6 6 6 7 7 9 10 11 11 10 9 11 11 9 6 5 8 10 10
3 1 4 3 6 4 2 4 5 4 4 2 4 3 8 4 7 3 7 17 17 14 14 16 18 21 18 13 8 10 10 8 8 8 9 8 10 12 13 11 11 9 10 10 10 7 6 9 9
1 3 5 6 4 4 3 2 4 2 6 3 4 4 4 6 7 5 10 15 15 12 11 14 18 21 22 15 11 9 10 10 9 8 9 10 10 12 11 13 12 11 10 11 10 10 9 8 8
2 5 6 7 6 1 4 3 3 1 2 6 2 7 6 6 5 8 13 13 13 14 14 15 21 21 20 18 18 14 11 10 8 9 10 10 12 13 14 14 14 12 11 11 12 11 10 9 8
4 4 6 5 2 4 3 2 1 3 2 3 2 5 7 2 6 9 11 10 12 13 12 13 20 21 21 18 17 20 16 13 11 11 11 11 12 15 15 18 16 13 12 12 13 13 12 10 8
5 4 5 5 5 3 2 1 1 2 2 2 4 4 4 3 14 14 13 11 11 11 13 13 16 21 22 19 16 15 18 18 16 13 12 12 12 11 15 16 16 14 14 13 12 10 10 9 8
7 5 3 4 4 2 3 1 3 3 3 5 1 2 2 6 13 13 11 8 9 10 13 11 14 17 20 21 19 17 14 17 17 13 12 11 9 10 11 14 15 15 14 14 13 12 11 11 9
6 6 4 1 5 2 1 2 2 4 3 4 2 4 3 6 15 13 10 9 10 10 13 13 13 14 13 13 18 20 18 17 17 15 11 11 9 10 11 11 14 16 15 14 14 14 13 11 9
3 6 3 6 6 4 1 3 2 1 5 4 3 3 3 10 12 13 15 15 15 13 14 13 14 14 15 13 12 16 19 17 13 11 10 10 7 9 9 10 11 16 13 14 14 15 14 11 8
7 5 5 3 5 5 3 3 4 4 4 4 2 2 8 7 9 14 16 15 16 17 17 14 14 15 14 12 13 12 12 9 10 9 10 7 9 8 9 11 13 12 11 11 13 15 13 10 6
4 4 5 1 3 4 5 3 2 7 3 1 1 6 10 9 14 14 14 13 15 16 12 14 14 14 14 12 9 6 6 6 7 11 10 8 7 7 7 6 6 6 10 7 9 10 8 9 6
8 3 1 4 2 4 4 5 4 3 2 4 4 4 6 9 11 12 15 16 17 17 16 15 15 13 13 9 9 9 8 8 7 8 11 8 5 7 8 6 8 7 6 8 8 6 8 9 8
7 3 4 4 6 5 5 3 5 3 2 3 6 8 7 9 12 11 12 14 15 17 17 17 16 15 12 12 9 10 10 9 9 9 10 9 9 9 8 8 7 8 8 8 8 8 7 8 8
5 7 5 3 3 4 7 3 2 3 2 4 5 6 7 10 12 13 16 16 17 18 19 18 18 15 13 13 13 10 9 11 9 9 9 12 10 10 8 8 9 8 9 8 9 9 8 8 7
6 8 4 3 0 3 6 3 3 2 3 4 6 7 8 11 12 13 13 16 16 15 18 19 19 18 17 16 12 10 9 11 10 9 12 13 12 10 10 9 8 9 9 11 8 8 7 6 6
6 5 4 2 2 1 4 4 3 1 3 4 7 8 11 11 11 12 13 14 15 16 19 19 17 19 18 17 13 10 9 9 10 9 9 13 14 13 11 8 8 9 8 9 9 9 8 7 7
5 4 3 2 1 3 4 3 4 2 4 4 6 8 9 12 13 15 14 15 17 19 19 18 19 18 19 18 14 12 12 9 9 9 9 12 13 13 11 10 9 10 8 8 9 8 9 8 8
7 5 2 4 4 3 3 4 4 2 4 3 5 6 9 12 11 13 14 16 16 18 17 18 16 17 18 13 12 10 9 8 8 8 9 12 10 12 10 8 11 11 9 8 8 11 9 7 8
8 6 4 1 2 4 6 5 8 5 3 4 6 8 9 10 11 11 12 13 17 18 20 20 19 20 14 11 10 7 6 6 6 6 10 11 10 12 9 8 8 11 9 9 9 9 8 8 7
5 5 2 1 1 1 1 7 5 6 2 2 4 6 8 11 14 13 16 16 19 18 20 20 21 20 15 13 12 7 5 4 6 7 9 10 11 12 10 7 5 6 7 8 9 10 5 6 7
3 5 5 2 1 2 5 5 3 3 4 3 4 3 5 8 11 12 14 16 17 18 18 18 18 17 17 21 13 12 6 4 4 6 3 10 12 6 4 6 6 6 8 7 10 11 13 7 7
4 2 5 5 4 3 3 6 4 4 5 3 3 5 5 7 8 8 14 16 16 16 15 17 18 17 19 21 16 19 12 10 8 8 10 12 16 15 14 13 11 10 10 6 2 2 6 11 9
4 3 4 3 4 4 1 3 4 4 6 6 2 2 4 6 7 9 11 13 14 14 15 16 18 19 20 19 18 14 15 10 10 10 14 14 14 17 15 15 16 13 9 11 11 10 13 9 6
9 6 6 4 3 2 1 5 6 6 8 6 3 1 3 5 7 7 9 10 11 13 14 14 16 17 18 17 19 19 19 18 15 16 13 12 11 12 17 16 14 14 12 12 8 9 11 9 9
2 5 2 6 3 5 3 2 8 5 5 7 8 5 2 3 5 6 9 11 11 13 14 13 15 16 17 17 18 17 17 18 17 15 12 15 12 13 16 15 15 12 12 11 11 13 11 9 7
5 2 6 8 4 2 3 7 4 3 6 7 6 6 4 2 3 5 5 6 7 10 12 13 15 15 16 15 15 14 16 10 11 14 12 11 10 11 14 14 14 14 13 12 11 11 9 10 9
5 5 3 8 2 3 5 5 1 4 5 5 7 5 5 2 1 3 4 4 5 7 9 11 12 12 13 13 11 12 12 13 12 13 12 9 11 11 14 15 15 15 15 13 12 9 10 9 9
2 3 3 2 2 4 5 6 6 12 13 10 9 8 7 5 3 1 2 3 4 5 6 9 10 11 11 12 12 10 12 13 12 12 13 13 13 14 13 13 14 13 14 14 12 11 11 10 10
4 3 1 2 4 5 1 8 3 15 18 18 13 11 9 8 7 4 1 2 3 4 6 7 10 11 12 12 11 11 12 13 12 12 12 12 12 13 14 14 15 15 14 13 12 11 11 11 11
2 6 6 5 6 3 2 8 2 5 15 14 13 12 9 6 7 5 3 1 3 5 7 8 8 9 8 9 9 10 9 10 12 12 12 11 12 13 13 13 13 13 13 13 13 13 12 14 14
Wind_Direction
334 330 58 45 59 63 65 47 270 7 47 49 47 82 96 75 8 47 313 345 334 342 345 358 3 356 319 293 278 247 211 207 206 220 210 214 201 183 174 168 163 158 155 162 155 100 110 114 117
330 281 53 81 78 68 46 347 4 26 289 112 69 86 49 76 19 359 357 337 337 340 354 11 0 343 324 311 272 268 252 215 216 218 233 227 220 207 184 173 175 170 162 160 163 148 137 137 138
158 11 71 73 77 113 132 343 298 303 28 58 106 52 63 339 347 359 331 327 337 350 354 5 354 8 1 323 297 268 264 259 225 225 235 245 239 234 208 182 184 184 173 165 162 156 154 153 147
37 30 49 69 93 72 154 252 243 320 20 45 132 85 92 95 351 323 320 338 345 350 352 354 357 5 10 8 351 298 273 257 261 254 249 253 258 254 224 204 186 191 181 175 169 164 164 162 160
35 62 68 83 90 158 210 208 180 79 106 0 320 127 123 52 333 332 334 342 351 347 354 358 359 359 3 4 3 348 308 276 258 253 256 262 267 270 237 203 190 191 189 182 175 174 174 170 172
50 81 85 153 183 180 212 240 71 34 36 33 67 109 136 121 4 339 334 343 349 352 352 355 357 357 354 353 349 353 335 317 273 257 255 259 267 278 201 199 192 191 192 185 178 175 168 175 173
99 74 91 78 132 155 182 123 63 51 19 29 321 84 298 347 342 331 328 326 344 358 359 353 354 352 351 346 337 339 335 330 317 259 255 254 258 268 218 209 195 196 195 188 181 182 186 184 182
96 90 89 98 173 166 67 86 117 66 30 302 12 35 336 316 331 332 338 337 353 359 359 354 351 347 344 337 329 338 331 320 323 297 259 257 250 258 217 215 206 201 200 193 183 179 190 195 193
102 68 136 179 160 149 94 108 25 40 69 33 33 94 311 318 336 350 354 356 355 357 355 350 347 346 340 332 333 330 325 319 301 304 269 260 255 247 227 202 211 207 201 199 187 184 191 191 194
63 86 178 175 159 147 126 99 125 82 19 36 28 357 347 338 350 357 357 349 346 344 343 347 342 340 335 330 325 322 319 319 312 297 288 262 245 239 223 209 204 203 202 204 188 187 187 188 197
22 124 169 71 117 118 118 78 65 120 46 297 3 326 343 350 356 355 350 344 335 330 332 340 336 334 331 327 320 311 311 310 306 305 293 266 245 230 223 214 206 195 210 196 199 195 201 199 196
91 64 101 145 93 81 99 114 74 46 115 99 66 357 345 340 347 347 346 342 337 336 334 336 333 325 323 319 315 309 305 302 296 292 303 297 235 234 221 212 201 191 199 192 203 200 203 204 208
79 130 62 84 89 75 99 82 136 100 102 65 19 7 341 353 356 350 337 338 336 334 334 333 330 324 317 316 311 307 303 295 290 292 289 285 285 231 219 216 206 196 202 200 204 207 205 213 211
127 103 104 75 124 113 115 149 54 205 129 31 12 338 355 3 352 345 347 340 340 335 334 332 327 321 322 316 302 296 293 292 283 280 282 284 286 279 219 221 208 198 204 202 205 206 207 215 218
123 82 77 37 70 132 134 141 143 148 112 19 352 349 357 3 353 348 335 341 337 331 331 330 328 326 320 312 308 297 286 286 281 274 274 277 275 271 260 222 217 220 198 205 206 207 210 214 219
75 67 122 245 143 245 134 246 176 348 158 5 350 354 360 351 330 340 341 340 332 339 341 331 332 326 320 312 304 296 287 275 275 268 265 272 276 276 294 215 209 220 217 200 203 203 206 215 216
10 167 155 200 165 152 162 234 173 116 102 20 359 357 351 346 353 354 344 340 348 348 340 335 333 326 319 313 305 294 283 269 264 268 261 263 268 270 269 254 197 208 210 204 204 202 204 204 213
186 168 164 183 200 167 194 233 190 154 103 35 357 349 360 353 340 337 341 347 353 347 340 340 337 333 327 316 304 297 284 273 267 264 262 264 265 265 260 285 219 187 208 208 199 209 200 203 208
124 120 134 165 194 178 219 235 204 180 94 32 7 5 357 343 320 338 343 349 354 353 350 350 343 339 336 326 314 296 292 287 283 263 267 264 266 263 247 263 235 202 206 209 201 209 198 212 190
91 111 110 13 10 227 308 264 193 175 150 85 28 5 348 336 345 352 351 359 5 354 353 353 350 345 350 347 334 320 323 291 282 285 279 283 272 267 252 261 260 239 213 220 210 203 196 214 187
48 143 173 149 97 43 343 286 151 189 124 118 45 13 342 326 336 340 351 2 1 359 357 350 351 351 10 5 355 351 348 308 305 330 359 27 31 9 337 325 277 261 233 226 230 222 202 200 184
164 165 122 121 106 220 36 276 225 193 192 179 37 10 349 342 349 343 3 2 358 357 356 359 3 2 20 14 10 16 17 2 0 17 26 31 31 30 28 41 45 47 39 354 336 228 208 228 209
161 128 103 87 91 52 90 78 268 132 222 206 128 11 3 342 343 351 0 360 352 359 2 5 14 15 23 18 20 20 18 13 24 28 38 33 32 32 31 35 40 34 39 32 27 40 20 351 270
144 81 55 58 87 31 129 133 266 190 197 147 154 135 25 345 347 6 4 1 358 5 8 3 4 14 19 21 24 25 25 25 27 23 30 30 34 33 31 34 41 41 34 31 17 36 46 29 8
82 108 346 349 14 220 151 71 253 190 175 152 160 157 81 355 358 12 9 6 360 9 9 3 5 14 10 14 21 22 24 26 30 27 25 29 26 26 22 27 35 34 34 37 36 37 25 23 44
183 189 165 206 205 230 129 232 263 149 122 119 136 148 126 23 3 27 3 357 352 360 7 360 358 2 8 6 16 19 27 30 28 25 23 25 24 24 20 27 30 31 26 30 32 41 20 9 21
185 199 134 104 28 49 214 267 260 130 150 155 162 163 164 185 335 32 356 11 10 4 9 359 353 354 7 5 7 20 21 27 28 25 29 28 26 25 23 28 26 23 24 23 38 37 15 9 9
187 153 89 4 171 253 270 272 228 196 195 186 182 187 188 195 216 184 15 8 17 12 1 8 354 2 1 6 3 11 21 23 25 29 26 22 19 23 25 27 31 31 28 25 29 31 20 21 13
154 193 182 143 166 176 223 257 207 193 186 183 185 189 186 190 191 189 159 355 28 31 7 27 8 9 6 2 8 16 17 22 28 27 24 22 25 25 27 26 28 26 25 22 31 32 24 30 25
195 196 178 143 214 237 155 270 330 211 180 173 178 184 190 187 184 188 168 99 35 35 15 26 15 15 6 358 360 14 30 25 31 29 25 22 30 28 26 29 33 31 28 23 24 24 22 27 23